Location: *
(50.6089°N, 2.2719°E)
Time: 00:05:52
(UTC+00:00)

FengYun 1-2 T - Pass Details

Date: 18 October 2019
Orbit: 846 x 882 km, 98.7° (Epoch: 20 November)

Event Time Altitude Azimuth Distance (km) Brightness Sun altitude
Rises 17:26:00 0° 150° (SSE) 3,467 7.2 -5.9°
Reaches altitude 10° 17:28:24 10° 146° (SSE) 2,529 6.4 -6.3°
Maximum altitude 17:33:55 59° 69° (ENE) 1,006 4.3 -7.1°
Drops below altitude 10° 17:39:26 10° 351° (N) 2,525 6.7 -8.0°
Sets 17:41:50 0° 348° (NNW) 3,461 7.5 -8.4°
